Regional Weather Roundup
Issued by NWS Cleveland, OH

Home | Current Version | Previous Version | Graphics & Text | Print | Product List | Glossary On
Versions: 1 2 3 4 5 6 7 8 9 10 11 12 13 14 15 16 17 18 19 20 21 22 23 24 25 26 27 28 29 30 31 32 33 34 35 36 37 38 39 40 41 42 43 44 45 46 47 48 49 50
000
ASUS41 KCLE 160212
RWRCLE
OHIO REGIONAL WEATHER ROUNDUP
NATIONAL WEATHER SERVICE WILMINGTON, OH
900 PM EST MON JAN 15 2018

NOTE: "FAIR" INDICATES FEW OR NO CLOUDS BELOW 12,000 FEET WITH NO
SIGNIFICANT WEATHER AND/OR OBSTRUCTIONS TO VISIBILITY.

OHZ001>008-015>018-024>027-034-035-043-044-160300-
   NORTHWEST OHIO

CITY           SKY/WX    TMP DP  RH WIND       PRES   REMARKS
DEFIANCE       CLOUDY    23  19  85 SW10      30.28R WCI  12
FINDLAY        FLURRIES  24  19  81 SW9       30.27R WCI  14
TOLEDO EXPRESS LGT SNOW  23  22  96 SW6       30.27R FOG     WCI  16
TOLEDO EXEC    CLOUDY    23  20  88 SW8       30.28R FOG     WCI  14
LIMA           CLOUDY    24  21  88 SW12      30.27R WCI  13
$$

OHZ009>014-019>023-028>033-038-089-160300-
   NORTHEAST OHIO

CITY           SKY/WX    TMP DP  RH WIND       PRES   REMARKS
CLE-HOPKINS    FLURRIES  27  22  81 S9        30.30R WCI  18
CLE-LAKEFRONT  CLOUDY    28  21  75 S9        30.28R WCI  19
CUY CO. ARPT   FLURRIES  27  23  86 S8        30.27S WCI  18
LORAIN-ELYRIA  CLOUDY    25  18  74 SW7       30.27R WCI  17
ASHTABULA      CLOUDY    24  22  91 S7        30.28F WCI  16
AKRON-CANTON   LGT SNOW  26  22  84 S10       30.25F FOG     WCI  16
WOOSTER        CLOUDY    25  22  88 SW7       30.26R WCI  17
MANSFIELD      CLOUDY    25  21  85 SW14      30.24S WCI  13
YOUNGSTOWN     LGT SNOW  25  22  88 SE6       30.26F FOG     WCI  18
$$

OHZ042-051>053-060>062-070>072-077>081-160300-
  SOUTHWEST OHIO

CITY           SKY/WX    TMP DP  RH WIND       PRES   REMARKS
CINC-COVINGTON LGT SNOW  27  27 100 SW6       30.31S FOG     WCI  20
CINC-LUNKEN    LGT SNOW  28  27  96 S8        30.35S FOG     WCI  20
HAMILTON       CLOUDY    28  25  88 SW5       30.33S WCI  23
DAYTON         CLOUDY    25  23  92 SW8       30.29S WCI  16
WRIGHT-PAT AFB CLOUDY    26  22  85 W8        30.30R WCI  18
DAYTON GENERAL CLOUDY    26  23  88 SW6       30.29S WCI  19
WILMINGTON     LGT SNOW  26  26 100 SW10      30.30R FOG     WCI  16
$$

OHZ036-037-039>041-045>050-054>059-063>069-073>076-082>088-160300-
  CENTRAL AND SOUTHEAST OHIO

CITY           SKY/WX    TMP DP  RH WIND       PRES   REMARKS
COLUMBUS       CLOUDY    28  24  85 SW9       30.29S WCI  19
OSU AIRPORT    CLOUDY    26  23  88 W9        30.29R WCI  17
BOLTON FIELD   CLOUDY    27  23  85 W6        30.30S WCI  20
RICKENBACK AFB CLOUDY    26  26  99 SW5       30.30S WCI  21
NEWARK         CLOUDY    27  23  85 SW9       30.29R WCI  18
MARION         CLOUDY    25  20  81 W8        30.28R WCI  16
LANCASTER      LGT SNOW  27  25  92 W9        30.31R FOG     WCI  18
ZANESVILLE     LGT SNOW  28  25  88 SW7       30.30R FOG     WCI  21
NEW PHILLY     LGT SNOW  26  24  92 S3        30.30R FOG
$$




USA.gov is the U.S. government's official web portal to all federal, state and local government web resources and services.